Hourly Weather Roundup
Issued by NWS Central Illinois

Home | Current Version | Previous Version | Text Only | Print | Product List | Glossary On
Versions: 1 2 3 4 5 6 7 8 9 10 11 12 13 14 15 16 17 18 19 20 21 22 23 24 25 26 27 28 29 30 31 32 33 34 35 36 37 38 39 40 41 42 43 44 45 46 47 48 49 50
000
NZUS43 KILX 291010
HWRILX

AREA WEATHER ROUNDUP
NATIONAL WEATHER SERVICE, LINCOLN IL
400 AM CST MON DEC 29 2014


CITY           SKY/WX    TMP DP  RH WIND       PRES   REMARKS
BLOOMINGTON    PTCLDY    22  20  92 CALM      30.26S
CHAMPAIGN      CLEAR     20  17  88 N5        30.25F WCI  13
DECATUR        CLEAR     20  18  92 NE3       30.25F
FLORA          CLEAR     24  23  96 CALM      30.27R
GALESBURG      PTCLDY    18  16  91 CALM      30.26F
JACKSONVILLE   CLEAR     22  20  92 E3        30.26S
LACON          PTCLDY    20  17  90 CALM      30.28S
LAWRENCEVILLE  MOCLDY    25  23  92 N6        30.27R WCI  18
LITCHFIELD     CLEAR     23  21  93 CALM      30.25S
$$


CITY           SKY/WX    TMP DP  RH WIND       PRES   REMARKS
LINCOLN        PTCLDY    22  21  93 CALM      30.28S
MACOMB         PTCLDY    22  21  96 NE3       30.28F
MATTOON        CLEAR     21  20  96 NE3       30.24F
MT CARMEL AP   PTCLDY    28  23  80 CALM      30.26R
OLNEY-NOBLE AP CLEAR     25  23  93 CALM      30.26S
PARIS          CLEAR     22  21  96 CALM      30.26F
PEORIA         PTCLDY    23  18  81 NE3       30.28R
PONTIAC        PTCLDY    22  20  90 CALM      30.28S
RANTOUL        CLEAR     24  19  78 CALM      30.26R
ROBINSON       CLEAR     22  21  96 N3        30.27S
SPRINGFIELD    CLEAR     20  16  84 CALM      30.27R
TAYLORVILLE    CLEAR     23  23 100 CALM      30.26R FOG
$$

...REGIONAL REPORTS...


CITY           SKY/WX    TMP DP  RH WIND       PRES   REMARKS
CHICAGO O`HARE MOCLDY    26  18  71 N7        30.27S WCI  18
KANKAKEE       PTCLDY    23  20  87 W3        30.27S
MOLINE         MOCLDY    24  20  84 CALM      30.28S
MOUNT VERNON   CLEAR     19  14  79 CALM      30.25F
PITTSFIELD     PTCLDY    24  22  94 CALM      30.26S
QUINCY         CLEAR     24  21  88 E3        30.25S
ROCKFORD       CLOUDY    25  19  78 N6        30.31R WCI  18
$$


CITY           SKY/WX    TMP DP  RH WIND       PRES   REMARKS
BURLINGTON     CLOUDY    25  22  88 NE3       30.25F
CEDAR RAPIDS   CLOUDY    26  21  81 NE7       30.27S WCI  18
DES MOINES     CLOUDY    27  22  81 NE9       30.27R WCI  18
KIRKSVILLE     PTCLDY    22  19  89 E5        30.24S WCI  16
OTTUMWA        PTCLDY    25  20  81 NE7       30.26S WCI  17
ST LOUIS       CLEAR     25  20  81 CALM      30.26R
$$


CITY           SKY/WX    TMP DP  RH WIND       PRES   REMARKS
TERRE HAUTE    CLEAR     22  20  92 NE3       30.26S
EVANSVILLE     CLOUDY    32  26  78 N6        30.24S WCI  26
INDIANAPOLIS   CLEAR     21  19  92 N5        30.23S WCI  15
LAFAYETTE      CLEAR     17  15  92 CALM      30.26S FOG
MADISON        CLOUDY    20  13  74 N8        30.32R WCI  10
MILWAUKEE      CLOUDY    24  14  65 N10       30.30R WCI  14
$$




USA.gov is the U.S. government's official web portal to all federal, state and local government web resources and services.